Flag for Germany Weather past 2 weeks in Kerpen, North Rhine-Westphalia, Germany

Now
54 °F

Partly sunny.


Feels Like: 53 °F
Forecast: 47 / 62 °F
Wind: 5 mph from South

Location: Noervenich

Current Time: Oct 26, 2014 at 10:39:18 AM

Latest Report: Oct 26, 2014 at 9:20 AM


Visibility: N/A

Pressure: 30.30 "Hg

Humidity: 82%

Dew point: 48 °F

Location of KerpenLocation

Historic Weather in Kerpen — Graph

°F

Kerpen temperature yesterday

Maximum temperature yesterday: 57 °F (at 12:20 PM)
Minimum temperature yesterday: 50 °F (at 2:20 AM)
Average temperature yesterday: 54 °F

Past Weeks' High & Low Weather Summary

 TemperatureHumidityPressure
High75 °F (Oct 19, 2:20 PM)100% (Oct 12, 7:20 AM)30.30 "Hg (Oct 12, 7:20 AM)
Low43 °F (Oct 22, 3:20 AM)46% (Oct 14, 2:20 PM)29.53 "Hg (Oct 21, 4:20 PM)
Average56 °F82%29.94 "Hg
* Reported Oct 11 10:20 AM — Oct 26 9:20 AM, Kerpen, Weather by CustomWeather, © 2014

Note: Actual official high and low records may vary slightly from our data, if they occured in-between our weather recording intervals... More about our weather records

Advertising

Kerpen weather history for previous 24 hours

 ConditionsComfort  
Time TempWeatherWind HumidityBarometerVisibility
9:20 AM
Oct 26
54 °FPartly sunny.5 mph82%30.30 "HgN/A
8:20 AM52 °FPartly sunny.5 mph82%30.27 "HgN/A
7:20 AM52 °FPartly sunny.3 mph82%30.27 "HgN/A
6:20 AM52 °FPassing clouds.2 mph82%30.27 "HgN/A
5:20 AM50 °FCool.3 mph88%30.24 "Hg4 mi
4:20 AM50 °FCool.6 mph88%30.24 "Hg4 mi
3:20 AM50 °FCool.2 mph94%30.24 "Hg4 mi
2:20 AM50 °FCool.No wind94%30.24 "Hg4 mi
2:20 AM50 °FCool.3 mph94%30.24 "Hg4 mi
1:20 AM50 °FCool.2 mph94%30.24 "Hg3 mi
12:20 AM48 °FCool.1 mph100%30.21 "Hg0 mi
11:20 PM
Oct 25
52 °FCool.1 mph94%30.21 "Hg2 mi
10:20 PM54 °FCool.2 mph94%30.21 "Hg3 mi
9:20 PM54 °FCool.3 mph94%30.18 "Hg3 mi
8:20 PM54 °FCool.3 mph100%30.18 "Hg3 mi
7:20 PM55 °FDrizzle. Fog.No wind94%30.15 "Hg1 mi
6:20 PM55 °FDrizzle. Fog.No wind94%30.12 "Hg2 mi
5:20 PM57 °FDrizzle. Partly sunny.No wind88%30.12 "Hg4 mi
4:20 PM57 °FBroken clouds.2 mph88%30.12 "HgN/A
3:55 PM57 °FBroken clouds.2 mph88%30.12 "HgN/A
3:20 PM57 °FPartly sunny.1 mph88%30.12 "HgN/A
2:20 PM55 °FBroken clouds.1 mph94%30.12 "HgN/A
1:20 PM57 °FBroken clouds.1 mph88%30.09 "HgN/A
12:20 PM57 °FPartly sunny.1 mph88%30.09 "HgN/A
11:20 AM55 °FCool.2 mph94%30.09 "Hg4 mi
10:20 AM54 °FCool.1 mph94%30.09 "Hg4 mi
Weather by CustomWeather, © 2014

See weather overviewHow to use our weather pages